www.pogodaiklimat.ru
ПОГОДА в Котсвилле
Время
и дата
10:35 25.09
10:55 25.09
11:15 25.09
11:35 25.09
11:55 25.09
12:15 25.09
12:35 25.09
12:55 25.09
13:15 25.09
13:35 25.09
13:55 25.09
14:15 25.09
14:35 25.09
14:55 25.09
15:15 25.09
15:35 25.09
15:55 25.09
16:15 25.09
16:35 25.09
16:55 25.09
17:15 25.09
17:35 25.09
17:55 25.09
18:15 25.09
18:35 25.09
18:55 25.09
19:15 25.09
19:35 25.09
19:55 25.09
20:15 25.09
20:35 25.09
20:55 25.09
21:15 25.09
21:35 25.09
21:55 25.09
22:15 25.09
22:35 25.09
22:55 25.09
23:15 25.09
23:35 25.09
23:55 25.09
00:15 26.09
00:35 26.09
00:55 26.09
01:15 26.09
01:35 26.09
01:55 26.09
02:15 26.09
Ветер
(напр.,м/с)
Видим. Явления Облачность Т
(С)
Тd
(С)
f
(%)
Тe
(С)
Тes
(С)
Комфортность P
(гПа)
Po
(гПа)
Тmin
(С)
Tmax
(С)
R
(мм)
R24
(мм)
S
(см)
нст 2 16 км ясно +18.0 +15.0 83 +19 +27 983.2
нст 3 16 км ясно +19.0 +15.0 78 +20 +28 983.2
нст 2 16 км 2/2 1800 м +19.0 +15.0 78 +21 +30 комфорт 983.2
штиль 0 16 км 5/5 1650 м +20.0 +15.0 73 +22 +30 комфорт 982.9
нст 3 16 км 2/2 1650 m
[Ac]
+21.0 +15.0 69 +25 +32 комфорт 982.6
Ю 3 16 км ясно +22.0 +14.0 60 +25 +35 комфорт 982.6
нст 2 16 км ясно +21.0 +14.0 64 +25 +37 комфорт 982.6
З 4 16 км 8/8 1500 м +21.0 +14.0 64 +24 +26 комфорт 982.6
СЗ 8
{14}
3 км дождь 10/8 690 m
[Ac]
+18.0 +16.0 88 +17 +17 983.5
З 4
{8}
3 км слабый дождь 8/8 150 м +16.0 +16.0 100 +15 +17 983.2
штиль 0 4 км слабый дождь 8/8 90 м +15.0 +15.0 100 +15 +18 982.6
Ю 2 14 км 5/5 60 м +16.0 +15.0 94 +16 +21 981.6
нст 2 14 км ясно +15.0 +15.0 100 +15 +24 981.9
нст 2 14 км слабый дождь ясно +16.0 +15.0 94 +16 +25 981.9
нст 3
{6}
11 км слабый дождь ясно +15.0 +15.0 100 +14 +19 980.6
нст 2 16 км ясно +16.0 +16.0 100 +16 +22 980.6
ЮЗ 3 16 км ясно +16.0 +16.0 100 +15 +21 980.6
ЮЗ 3 16 км 2/0 3300 m
[Ac]
+16.0 +16.0 100 +15 +18 980.6
нст 2 16 км ясно +17.0 +16.0 94 +17 +20 980.2
нст 2 16 км ясно +17.0 +16.0 94 +17 +20 980.2
штиль 0 16 км ясно +17.0 +16.0 94 +17 +18 980.2
штиль 0 16 км ясно +17.0 +16.0 94 +17 +18 979.9
штиль 0 16 км 2/0 3000 m
[Ac]
+16.0 +16.0 100 +16 +17 979.9
штиль 0 11 км слабый дождь 5/5 120 м +16.0 +16.0 100 +16 +16 979.9
нст 2 16 км 8/5 1800 m
[Ac]
+16.0 +16.0 100 +16 +16 979.6
нст 2 16 км 8/2 1800 m
[Ac]
+17.0 +16.0 94 +17 +17 979.9
штиль 0 16 км 5/5 1800 m
[Ac]
+17.0 +17.0 100 +17 +17 979.9
штиль 0 16 км 2/2 1800 m
[Ac]
+17.0 +17.0 100 +17 +17 979.9
штиль 0 16 км ясно +16.0 +16.0 100 +16 +16 980.2
ЮЗ 2 16 км ясно +16.0 +16.0 100 +16 +16 980.6
З 8 14 км 5/5 780 м +17.0 +16.0 94 +16 +16 981.2
СЗ 6
{9}
6 км дождь 8/8 990 м +16.0 +15.0 94 +15 +15 981.2
З 4 16 км 2/2 1050 м +15.0 +15.0 100 +14 +14 981.6
З 3 16 км ясно +15.0 +15.0 100 +14 +14 981.9
нст 2 16 км ясно +15.0 +15.0 100 +15 +15 981.9
нст 2 16 км 2/0 2700 m
[Ac]
+15.0 +15.0 100 +15 +15 981.9
нст 2 16 км 2/0 2700 m
[Ac]
+15.0 +14.0 94 +15 +15 981.9
З 3 16 км ясно +15.0 +14.0 94 +14 +14 981.9
ЮЗ 2 16 км 2/0 3000 m
[Ac]
+15.0 +15.0 100 +15 +15 982.2
нст 2 16 км 2/0 3300 m
[Ac]
+15.0 +14.0 94 +15 +15 982.2
З 3 16 км 2/0 3000 m
[Ac]
+15.0 +14.0 94 +14 +14 982.2
нст 3 16 км ясно +15.0 +14.0 94 +14 +14 982.2
З 2 16 км ясно +15.0 +14.0 94 +15 +15 982.2
нст 2 16 км ясно +15.0 +13.0 88 +15 +15 982.2
ЮЗ 2 16 км ясно +15.0 +14.0 94 +15 +15 982.2
З 3 16 км ясно +15.0 +13.0 88 +14 +14 982.2
З 3 16 км ясно +15.0 +13.0 88 +14 +14 981.9
З 2 16 км ясно +15.0 +13.0 88 +15 +15 981.9
Местоположение метеостанции Chester County G O Carlson Airport: широта 39.9800 долгота -75.8700 высота над уровнем моря 201 м.
В архиве по умолчанию представлена погода в Котсвилле за последние 1-2 суток. Обновление информации о фактической погоде в базе происходит ежечасно! Архивные данные за месяц целиком и за предыдущие месяцы Вы можете получить, выбрав интересующий диапазон дат из раскрывающегося списка и нажав кнопку "Ввод!".
Внимание! Архив погоды МЕТАР в базе сайта по станциям, не включенным в климатический монитор, хранится не более 60 дней. Нет смысла пытаться выбрать более раннюю дату.
*Определитесь, кто Вы:
Внимание! Время в таблицах - местное (без учета летнего времени). Для получения всемирного времени необходимо вычесть поправку, которая равна -5 ч.
Смотрите также архив погоды в соседних городах и на ближайших метеорологических станциях:
Партнеры нашего сайта:      
Пояснения к столбцам:
  • Ветер - указаны скорость ветра в м/с - средняя за 10 мин, порывы в срок и между сроками (в фигурных скобках) и направление, откуда дует ветер: С - северный,
  • СВ - северо-восточный, В - восточный, ЮВ - юго-восточный, Ю - южный, ЮЗ - юго-западный, З - западный, СЗ - северо-западный.
  • Видимость - горизонтальная дальность видимости в метрах или километрах. При видимости от 1 до 10 км при отсутствии осадков обычно наблюдается дымка, при ухудшении видимости до 1 км и менее - туман. В сухую погоду видимость может ухудшаться дымом, пылью или мглою.
  • Явления - указаны атмосферные явления, наблюдавшиеся в срок или в последний час перед сроком; фигурными скобками обозначены явления, наблюдавшиеся между сроками (за 1-3 часа до срока); квадратными скобками обозначены град или гололедные отложения с указанием их диаметра в мм.
  • Облачность - указаны через наклонную черту общая и нижняя облачность в баллах и высота нижней границы облаков в метрах; квадратными скобками обозначены формы облаков: Ci - перистые, Cs - перисто-слоистые, Cc - перисто-кучевые, Ac - высококучевые, As - высокослоистые, Sc - слоисто-кучевые, Ns - слоисто-дождевые, Cu - кучевые, Cb - кучево-дождевые. Подробнее классификацию облаков см. в Атласе облаков (PDF).
  • T - Температура воздуха - температура, измеренная на высоте 2 м над землей.
  • Td - Температура точки росы - температура, при понижении до которой содержащийся в воздухе водяной пар достигнет насыщения.
  • f - Относительная влажность воздуха - влажноcть воздуха, измеренная на высоте 2 м над землей.
  • Te - Эффективная температура - температура, которую ощущает одетый по сезону человек в тени. Характеристика душности погоды. При расчете учитывается влияние влажности воздуха и скорости ветра на теплоощущения человека.
  • Tes - Эффективная температура на солнце - температура, которую ощущает человек, с поправкой на солнечный нагрев. Характеристика знойности погоды. Зависит от высоты солнца над горизонтом, облачности и скорости ветра. Ночью, в пасмурную погоду, а также при ветре 12 м/с и более поправка равна нулю.
  • P - Атмосферное давление - приведенное к уровню моря атмосферное давление.
  • Po - Атмосферное давление - измеренное на уровне метеостанции атмосферное давление.
  • Tmin - Минимальная температура - минимум температуры воздуха на высоте 2 м над землей.
  • Tmax - Максимальная температура - максимум температуры воздуха на высоте 2 м над землей.
  • R - Количество осадков - Количество выпавших осадков за период времени, мм. При наведении курсора мыши на число - период времени, за который выпало указанное количество осадков.
  • R24 - Количество осадков - Количество выпавших осадков за 24 часа, мм.
  • S - Снежный покров - Высота снежного покрова, см. При наведении курсора мыши на число - состояние снежного покрова и степень покрытия местности в баллах.